Date String (YYYY-MM-DD hh:mm:ss) UTC,Instrument flags,absolute air pressure of the measurement (hPa),sample flow rate (lpm),inlet stack bypass flow (lpm),air temperature of the measurement (°C),ambient temperature measured by the external sensor (°C),aerosol sample conditioner tube jacket temperature (°C),OPC LED temperature (°C),internal box temperature (°C),relative humidity of the measurement (%),span deviation,mass concentration of particles derived from Lorenz-Mie calculation of OPC scattering (μg/m³),mass concentration of particles derived from Lorenz-Mie calculation of OPC scattering (μg/m³),mass concentration of particles derived from Lorenz-Mie calculation of OPC scattering (μg/m³)
DateTimeUTC,F1_M11,P_M11,Q1_M11,Q2_M11,T1_M11,T2_M11,T3_M11,T4_M11,T5_M11,U1_M11,ZSPAN_M11,X0_M11,X2_M11,X1_M11
2023-08-15 04:00:00,SystemResetWarning,0839.7,5.00,000.00,029.4,025.5,000.0,037.7,030.7,20.6,0000.0,0016.43,0005.32,0004.22
2023-08-15 04:01:00,SystemResetWarning,0839.7,5.01,000.00,029.3,025.2,000.0,037.6,030.5,20.6,0000.0,0016.09,0005.40,0004.22
2023-08-15 04:02:00,SystemResetWarning,0839.7,5.01,000.00,029.2,025.4,000.0,037.7,030.4,20.7,0000.0,0015.59,0005.45,0004.22
2023-08-15 04:03:00,SystemResetWarning,0839.7,4.99,000.00,029.2,025.8,000.0,037.7,030.4,20.8,0000.0,0014.86,0005.44,0004.22
2023-08-15 04:04:00,SystemResetWarning,0839.7,5.00,000.00,029.2,026.2,000.0,037.7,030.5,20.9,0000.0,0015.71,0005.44,0004.22
2023-08-15 04:05:00,SystemResetWarning,0839.7,5.01,000.00,029.2,026.6,000.0,037.7,030.6,20.9,0000.0,0015.91,0005.36,0004.21
2023-08-15 04:06:00,SystemResetWarning,0839.8,5.00,000.00,029.2,026.9,000.0,037.7,030.7,20.9,0000.0,0016.61,0005.41,0004.21
2023-08-15 04:07:00,SystemResetWarning,0839.8,5.00,000.00,029.2,027.2,000.0,037.7,030.8,20.9,0000.0,0016.12,0005.47,0004.22
2023-08-15 04:08:00,SystemResetWarning,0839.7,5.00,000.00,029.2,027.4,000.0,037.7,030.8,20.9,0000.0,0017.64,0005.51,0004.22
2023-08-15 04:09:00,SystemResetWarning,0839.7,5.00,000.00,029.2,027.6,000.0,037.8,030.9,20.8,0000.0,0018.38,0005.49,0004.22
2023-08-15 04:10:00,SystemResetWarning,0839.8,5.00,000.00,029.3,027.8,000.0,037.8,030.9,20.8,0000.0,0018.90,0005.46,0004.21
2023-08-15 04:11:00,SystemResetWarning,0839.8,5.00,000.00,029.3,027.9,000.0,037.8,031.0,20.7,0000.0,0019.33,0005.38,0004.20
2023-08-15 04:12:00,SystemResetWarning,0839.8,5.00,000.00,029.3,028.0,000.0,037.8,031.0,20.7,0000.0,0019.08,0005.31,0004.21
2023-08-15 04:13:00,SystemResetWarning,0839.8,5.00,000.00,029.3,028.1,000.0,037.8,031.0,20.6,0000.0,0019.11,0005.28,0004.22
2023-08-15 04:14:00,SystemResetWarning,0839.7,5.00,000.00,029.4,028.2,000.0,037.8,031.1,20.6,0000.0,0020.29,0005.28,0004.22
2023-08-15 04:15:00,SystemResetWarning,0839.7,5.00,000.00,029.4,028.2,000.0,037.9,031.1,20.5,0000.0,0021.30,0005.34,0004.23
2023-08-15 04:16:00,SystemResetWarning,0839.8,5.01,000.00,029.4,028.3,000.0,037.9,031.2,20.5,0000.0,0021.43,0005.35,0004.23
2023-08-15 04:17:00,SystemResetWarning,0839.7,5.00,000.00,029.5,028.4,000.0,037.9,031.2,20.4,0000.0,0020.28,0005.32,0004.24
2023-08-15 04:18:00,SystemResetWarning,0839.7,5.00,000.00,029.5,028.4,000.0,037.9,031.2,20.4,0000.0,0019.42,0005.30,0004.25
2023-08-15 04:19:00,SystemResetWarning,0839.7,4.99,000.00,029.5,028.4,000.0,038.0,031.2,20.3,0000.0,0017.76,0005.30,0004.26
2023-08-15 04:20:00,SystemResetWarning,0839.8,4.99,000.00,029.5,026.9,000.0,037.9,031.0,20.3,0000.0,0017.17,0005.34,0004.28
2023-08-15 04:21:00,SystemResetWarning,0839.8,5.01,000.00,029.4,025.3,000.0,037.7,030.7,20.3,0000.0,0016.91,0005.33,0004.27
2023-08-15 04:22:00,SystemResetWarning,0839.7,5.01,000.00,029.4,025.2,000.0,037.7,030.5,20.4,0000.0,0017.34,0005.38,0004.27
2023-08-15 04:23:00,SystemResetWarning,0839.7,5.00,000.00,029.2,025.5,000.0,037.7,030.4,20.6,0000.0,0018.07,0005.41,0004.28
2023-08-15 04:24:00,SystemResetWarning,0839.7,5.00,000.00,029.2,025.9,000.0,037.7,030.5,20.7,0000.0,0018.09,0005.47,0004.29
2023-08-15 04:25:00,SystemResetWarning,0839.7,5.00,000.00,029.2,026.3,000.0,037.8,030.6,20.7,0000.0,0016.63,0005.49,0004.30
2023-08-15 04:26:00,SystemResetWarning,0839.8,4.99,000.00,029.2,026.6,000.0,037.8,030.7,20.7,0000.6,0015.39,0005.47,0004.32
2023-08-15 04:27:00,SystemResetWarning,0839.8,5.00,000.00,029.2,027.0,000.0,037.8,030.7,20.6,0000.4,0015.50,0005.49,0004.33
2023-08-15 04:28:00,SystemResetWarning,0839.8,5.01,000.00,029.2,027.2,000.0,037.8,030.8,20.5,0000.0,0016.00,0005.55,0004.33
2023-08-15 04:29:00,SystemResetWarning,0839.8,5.00,000.00,029.2,027.4,000.0,037.8,030.8,20.6,0000.0,0016.62,0005.61,0004.34
2023-08-15 04:30:00,SystemResetWarning,0839.7,5.00,000.00,029.2,027.6,000.0,037.8,030.9,20.6,0000.0,0017.00,0005.63,0004.35
2023-08-15 04:31:00,SystemResetWarning,0839.8,5.00,000.00,029.3,027.8,000.0,037.8,030.9,20.5,0000.0,0018.01,0005.66,0004.36
2023-08-15 04:32:00,SystemResetWarning,0839.8,5.00,000.00,029.3,027.9,000.0,037.8,031.0,20.4,0000.0,0018.67,0005.63,0004.38
2023-08-15 04:33:00,SystemResetWarning,0839.7,5.00,000.00,029.3,028.0,000.0,037.8,031.0,20.5,0000.0,0018.01,0005.63,0004.39
2023-08-15 04:34:00,SystemResetWarning,0839.7,5.00,000.00,029.4,028.1,000.0,037.8,031.0,20.4,0000.0,0017.67,0005.63,0004.39
2023-08-15 04:35:00,SystemResetWarning,0839.7,5.00,000.00,029.4,028.2,000.0,037.9,031.1,20.4,0000.0,0017.96,0005.62,0004.38
2023-08-15 04:36:00,SystemResetWarning,0839.7,5.00,000.00,029.4,028.2,000.0,037.9,031.1,20.4,0000.0,0019.00,0005.60,0004.37
2023-08-15 04:37:00,SystemResetWarning,0839.8,5.00,000.00,029.5,028.3,000.0,037.9,031.1,20.3,0000.0,0019.03,0005.58,0004.36
2023-08-15 04:38:00,SystemResetWarning,0839.8,5.00,000.00,029.5,028.3,000.0,037.9,031.2,20.2,0000.0,0019.06,0005.57,0004.37
2023-08-15 04:39:00,SystemResetWarning,0839.8,5.00,000.00,029.5,028.4,000.0,038.0,031.2,20.2,0000.0,0019.50,0005.58,0004.37
2023-08-15 04:40:00,SystemResetWarning,0839.8,5.00,000.00,029.5,028.4,000.0,038.0,031.3,20.1,0000.0,0019.85,0005.54,0004.37
2023-08-15 04:41:00,SystemResetWarning,0839.8,5.00,000.00,029.6,028.5,000.0,038.0,031.3,20.1,0000.0,0019.85,0005.50,0004.36
2023-08-15 04:42:00,SystemResetWarning,0839.7,4.99,000.00,029.6,028.4,000.0,038.0,031.3,20.0,0000.0,0019.49,0005.46,0004.35
2023-08-15 04:43:00,SystemResetWarning,0839.7,4.99,000.00,029.6,026.7,000.0,037.9,031.0,20.0,0000.0,0019.01,0005.48,0004.35
2023-08-15 04:44:00,SystemResetWarning,0839.7,5.01,000.00,029.5,025.3,000.0,037.8,030.7,20.1,0000.0,0018.66,0005.47,0004.35
2023-08-15 04:45:00,SystemResetWarning,0839.8,5.02,000.00,029.4,025.3,000.0,037.7,030.6,20.2,0000.0,0018.38,0005.48,0004.35
2023-08-15 04:46:00,SystemResetWarning,0839.7,5.00,000.00,029.3,025.5,000.0,037.8,030.4,20.3,0000.0,0017.74,0005.47,0004.37
2023-08-15 04:47:00,SystemResetWarning,0839.8,5.00,000.00,029.2,025.9,000.0,037.8,030.5,20.3,0000.0,0017.80,0005.46,0004.38
2023-08-15 04:48:00,SystemResetWarning,0839.7,5.00,000.00,029.2,026.3,000.0,037.8,030.6,20.3,0000.0,0018.26,0005.48,0004.39
2023-08-15 04:49:00,SystemResetWarning,0839.7,5.00,000.00,029.2,026.7,000.0,037.8,030.7,20.4,0000.0,0017.43,0005.50,0004.39
2023-08-15 04:50:00,SystemResetWarning,0839.7,5.00,000.00,029.2,027.0,000.0,037.8,030.8,20.4,0000.0,0016.75,0005.51,0004.40
2023-08-15 04:51:00,SystemResetWarning,0839.8,5.00,000.00,029.2,027.2,000.0,037.8,030.8,20.4,0000.0,0015.92,0005.49,0004.40
2023-08-15 04:52:00,SystemResetWarning,0839.7,4.99,000.00,029.3,027.4,000.0,037.8,030.9,20.5,0000.0,0015.61,0005.50,0004.40
2023-08-15 04:53:00,SystemResetWarning,0839.7,5.00,000.00,029.3,027.6,000.0,037.8,030.9,20.4,0000.0,0015.24,0005.54,0004.41
2023-08-15 04:54:00,SystemResetWarning,0839.7,5.00,000.00,029.3,027.8,000.0,037.9,030.9,20.3,0000.0,0015.09,0005.58,0004.42
2023-08-15 04:55:00,SystemResetWarning,0839.7,5.00,000.00,029.3,027.9,000.0,037.9,031.0,20.3,0000.0,0015.13,0005.57,0004.43
2023-08-15 04:56:00,SystemResetWarning,0839.7,5.00,000.00,029.4,028.0,000.0,037.9,031.0,20.3,0000.0,0016.42,0005.57,0004.45
2023-08-15 04:57:00,SystemResetWarning,0839.7,5.00,000.00,029.4,028.1,000.0,037.9,031.0,20.2,0000.0,0017.04,0005.57,0004.46
2023-08-15 04:58:00,SystemResetWarning,0839.7,5.00,000.00,029.4,028.1,000.0,037.9,031.1,20.2,0000.0,0016.26,0005.59,0004.46
2023-08-15 04:59:00,SystemResetWarning,0839.7,5.01,000.00,029.4,028.2,000.0,037.9,031.1,20.2,0000.0,0015.45,0005.59,0004.46
